Regional Weather Roundup
Issued by NWS

Home | Current Version | Previous Version | Graphics & Text | Print | Product List | Glossary On
Versions: 1 2 3 4 5 6 7 8 9 10 11 12 13 14 15 16 17 18 19 20 21 22 23 24 25 26 27 28 29 30 31 32 33 34 35 36 37 38 39 40 41 42 43 44 45 46 47 48 49 50
000
ASUS43 KDTX 031010
RWRMI
MICHIGAN HOURLY REGIONAL WEATHER ROUNDUP
NATIONAL WEATHER SERVICE DETROIT/PONTIAC MI
500 AM EST SAT DEC 03 2016

NOTE: "FAIR" INDICATES FEW OR NO CLOUDS BELOW 12,000 FEET WITH NO
SIGNIFICANT WEATHER AND/OR OBSTRUCTION TO VISIBILITY.

MIZ047>049-052>055-059>063-066>070-074>076-081>083-031100-
SOUTHEAST LOWER MICHIGAN

CITY           SKY/WX    TMP DP  RH WIND       PRES   REMARKS
ADRIAN         CLOUDY    34  30  85 W5        30.28S WCI  30
ALMA           CLOUDY    34  31  86 W7        30.26R WCI  28
ANN ARBOR      MOCLDY    26  25  96 CALM      30.26
BAD AXE        CLOUDY    37  33  87 W7        30.21R WCI  31
CARO           CLOUDY    34  31  89 W8        30.23S WCI  27
DETROIT CITY   CLOUDY    35  29  78 W7        30.26  WCI  29
DETROIT        CLOUDY    34  28  79 W5        30.27F WCI  30
FLINT          CLOUDY    32  29  88 W5        30.25S WCI  27
GROSSE ILE     CLOUDY    34  29  80 W6        30.26S WCI  29
HILLSDALE      CLOUDY    32  30  93 W5        30.26R WCI  27
HOWELL         CLOUDY    34  29  83 W5        30.25R WCI  30

CITY           SKY/WX    TMP DP  RH WIND       PRES   REMARKS
JACKSON        CLOUDY    34  28  79 W8        30.27R WCI  27
LAMBERTVILLE   CLOUDY    37  30  75 W6        30.28R WCI  32
LANSING        CLOUDY    35  28  75 W7        30.27  WCI  29
LAPEER         NOT AVBL
MASON          CLOUDY    34  30  86 CALM      30.26S
MONROE         CLOUDY    34  31  88 CALM      30.27R
MT. CLEMENS    CLOUDY    37  31  80 NW10      30.23R WCI  29
PONTIAC        CLOUDY    34  28  79 W10       30.23  WCI  26
PORT HOPE        N/A     40  34  79 NW12      30.18S WCI  33
PORT HURON     CLOUDY    36  32  87 W6        30.23S WCI  31
TRI CITIES     CLOUDY    32  30  92 W7        30.25S WCI  26
MIDLAND        CLOUDY    30  28  93 CALM      30.23F
TROY           CLOUDY    36  29  74 W6        30.27S WCI  31
SAGINAW HB     CLOUDY    34  30  86 W6        30.24S WCI  29
$$
MIZ043>046-050>051-056>058-064>065-071>073-077>080-031100-
SOUTHWEST LOWER MICHIGAN

CITY           SKY/WX    TMP DP  RH WIND       PRES   REMARKS
BATTLE CREEK   CLOUDY    34  31  88 SW5       30.28R WCI  30
BENTON HARBOR  CLOUDY    36  27  69 W10       30.30S WCI  28
BIG RAPIDS     CLOUDY    35  31  83 W5        30.24R WCI  31
COLDWATER      CLOUDY    34  30  83 CALM      30.28R
FREMONT        CLOUDY    34  28  76 W3        30.27R
HOLLAND        CLOUDY    37  29  72 W5        30.29S WCI  33
GRAND RAPIDS   FLURRIES  34  30  85 W7        30.28S WCI  28
KALAMAZOO      CLOUDY    36  29  75 W5        30.28S WCI  32
LUDINGTON      CLOUDY    37  32  82 CALM      30.26S
MARSHALL       CLOUDY    34  31  88 SW3       30.27R
MOUNT PLEASANT CLOUDY    34  30  85 W5        30.24R WCI  30
MUSKEGON       CLOUDY    36  28  73 W5        30.29R WCI  32
SOUTH HAVEN    CLOUDY    38  30  71 W3        30.29S
$$
MIZ016>042-031100-
NORTHERN LOWER MICHIGAN

CITY           SKY/WX    TMP DP  RH WIND       PRES   REMARKS
ALPENA         CLOUDY    37  32  82 VRB7      30.19  WCI  32
BEAVER ISLAND  CLOUDY    37  31  81 NW8       30.22S WCI  30
BELLAIRE       MIX PCPN  36  35  96 N3        30.22S
CADILLAC       CLOUDY    33  32  96 SW5       30.20S FOG     WCI  29
CHARLEVOIX     CLOUDY    39  32  77 NW12      30.24S WCI  31
FRANKFORT      LGT RAIN  37  35  94 N3        30.23S
GRAYLING       CLOUDY    35  34  96 W3        30.20S
HARBOR SPRINGS LGT RAIN  36  33  90 CALM      30.21S
MANISTEE       CLOUDY    38  32  79 W6        30.24  WCI  33
OSCODA         CLOUDY    38  33  81 W5        30.19S WCI  35
PELLSTON       CLOUDY    36  32  85 NW6       30.21S WCI  31
ROGERS CITY    CLOUDY    37  31  82 W6        30.20S WCI  32
$$
MIZ007>008-015-031100-
EASTERN UPPER MICHIGAN

CITY           SKY/WX    TMP DP  RH WIND       PRES   REMARKS
KINROSS        FLURRIES  32  31  96 W8        30.19S WCI  25
MACKINAC ISLAN CLOUDY    35  32  89 NW9G17    30.19S WCI  27
NEWBERRY       CLOUDY    33  32  96 NW6       30.20S WCI  27
S. S. MARIE    MOCLDY    34  32  92 CALM      30.17S
MUNISING         N/A     35  33  92 NW10      30.22S WCI  27
$$
MIZ004>006-011>014-085-031100-
CENTRAL UPPER MICHIGAN

CITY           SKY/WX    TMP DP  RH WIND       PRES   REMARKS
MANISTIQUE     CLOUDY    34  32  93 NW5       30.22S WCI  30
ESCANABA       CLOUDY    34  29  82 NW5       30.25S WCI  30
MENOMINEE      CLOUDY    33  28  81 W5        30.26S WCI  29
$$
MIZ001>003-009>011-084-031100-
WESTERN UPPER MICHIGAN

CITY           SKY/WX    TMP DP  RH WIND       PRES   REMARKS
HOUGHTON       CLOUDY    31  28  89 NE3       30.21F
COPPER HARBOR    N/A     35  27  72 N9        30.23S WCI  28
IRONWOOD       CLOUDY   N/A N/A N/A SW6       30.25S
$$

ABBREVIATIONS USED IN REMARKS
   TC - TEMPERATURE IN CELSIUS
  WCI - WIND CHILL INDEX
   HX - HEAT INDEX
  VSB - VISIBILITY





USA.gov is the U.S. government's official web portal to all federal, state and local government web resources and services.